Tracking 18785 objects as of 23-July-2017
HD Live streaming from Space Station
objects crossing your sky now
MAYAK may become the brightest orbital object in the night sky!
Where is MAYAK now?
How to spot MAYAK

SS 1

Track SS 1 now!
10-day predictions
SS 1 is classified as:


NORAD ID: 10529
Int'l Code: 1977-112D
Perigee: 368.5 km
Apogee: 1,586.2 km
Inclination: 63.3 °
Period: 104.5 minutes
Semi major axis: 7348 km
RCS: Unknown
Launch date: December 8, 1977
Source: United States (US)
Launch site: AIR FORCE WESTERN TEST RANGE (AFWTR)
Your satellite tracking list
Your tracking list is empty





NASA's NSSDC Master Catalog

Two Line Element Set (TLE):
1 10529U 77112D   16261.81734232 0.00003700  00000-0  20984-3 0    00
2 10529  63.2828 159.9408 0828581 103.0568 256.9431 13.78226620    06
Source of the keplerian elements: McCants